Weather reports worldwide

Advertisment
Meierwik, Germany (10033): temperature & dewpoint: 10.01.2021 05:00:00 - 16.01.2021 05:00:00 (CET)Meierwik, Germany (10033): wind speed & gusts: 10.01.2021 05:00:00 - 16.01.2021 05:00:00 (CET)Meierwik, Germany (10033): wind direction: 10.01.2021 05:00:00 - 16.01.2021 05:00:00 (CET)Meierwik, Germany (10033): reduced air pressure: 10.01.2021 05:00:00 - 16.01.2021 05:00:00 (CET)Meierwik, Germany (10033): visibility: 10.01.2021 05:00:00 - 16.01.2021 05:00:00 (CET)
Date & Time tt [°C] td [°C] ff [km/h] ff [kn] fx [km/h] fx [kn] dd ppp [hPa] vv [km]
16.01.2021 05:00:00 -2,2 -4,9 11 6 - - NW 1026,6 28
16.01.2021 04:00:00 -1,4 -4,9 7 4 - - NNW 1026,8 35
16.01.2021 03:00:00 -1,3 -5,3 11 6 - - N 1027,2 35
16.01.2021 02:00:00 -1,0 -5,2 14 8 - - WNW 1027,4 35
16.01.2021 01:00:00 -0,8 -5,1 14 8 - - NW 1027,9 30
16.01.2021 00:00:00 -0,5 -5,4 22 12 - - WNW 1028,1 35
15.01.2021 23:00:00 -0,6 -5,8 14 8 - - WNW 1028,1 30
15.01.2021 22:00:00 -0,5 -5,9 18 10 - - WNW 1028,2 35
15.01.2021 21:00:00 -0,6 -6,2 14 8 - - NW 1028,3 40
15.01.2021 20:00:00 -0,7 -7,0 14 8 - - NNW 1028,5 35
15.01.2021 19:00:00 -0,9 -7,2 14 8 - - N 1028,5 45
15.01.2021 18:00:00 -1,2 -7,7 14 8 - - N 1028,4 50
15.01.2021 17:00:00 -1,4 -8,4 14 8 - - N 1028,5 50
15.01.2021 16:00:00 -1,0 -7,0 22 12 - - N 1028,2 45
15.01.2021 15:00:00 -0,9 -7,1 22 12 - - N 1028,0 45
15.01.2021 14:00:00 -0,8 -6,4 18 10 - - N 1027,9 50
15.01.2021 13:00:00 -0,8 -7,7 18 10 - - NE 1027,8 60
15.01.2021 12:00:00 -1,0 -5,8 22 12 - - N 1027,8 45
15.01.2021 11:00:00 -1,2 -5,8 25 14 - - N 1027,7 40
15.01.2021 10:00:00 -1,4 -5,5 25 14 - - N 1027,0 30
15.01.2021 09:00:00 -1,0 -5,2 25 14 - - N 1026,6 30
15.01.2021 08:00:00 -1,0 -4,5 25 14 - - N 1026,0 22
15.01.2021 07:00:00 -0,7 -5,1 25 14 - - N 1025,6 29
15.01.2021 06:00:00 -0,7 -4,9 22 12 - - N 1025,2 23
15.01.2021 05:00:00 -0,6 -4,3 22 12 - - N 1025,0 19
15.01.2021 04:00:00 -0,4 -4,9 22 12 - - N 1024,9 30
15.01.2021 03:00:00 -0,5 -4,1 25 14 - - N 1024,9 24
15.01.2021 02:00:00 -0,1 -3,5 29 16 - - NNE 1024,7 20
15.01.2021 01:00:00 0,4 -2,9 22 12 - - NNE 1024,5 27
15.01.2021 00:00:00 0,5 -2,5 22 12 - - NNE 1024,3 30
14.01.2021 23:00:00 0,8 -1,9 25 14 - - NNE 1024,1 27
14.01.2021 22:00:00 0,9 -1,5 22 12 - - NNE 1024,0 24
14.01.2021 21:00:00 0,8 -1,0 22 12 - - N 1023,7 6
14.01.2021 20:00:00 0,5 -0,5 14 8 - - N 1023,2 7
14.01.2021 19:00:00 0,6 -0,9 18 10 - - N 1022,9 6
14.01.2021 18:00:00 1,2 -0,9 22 12 - - N 1023,0 15
14.01.2021 17:00:00 1,2 -0,7 22 12 - - NNE 1022,6 16
14.01.2021 16:00:00 1,0 -1,1 22 12 - - NNE 1022,0 17
14.01.2021 15:00:00 1,0 -1,4 22 12 - - NNE 1021,5 19
14.01.2021 14:00:00 0,8 -1,9 22 12 - - NNE 1021,4 21
14.01.2021 13:00:00 - - - - - - - - -
14.01.2021 12:00:00 0,6 -2,1 22 12 - - N 1021,4 20
14.01.2021 11:00:00 0,6 -1,9 22 12 - - NNE 1021,0 28
14.01.2021 10:00:00 - - - - - - - - -
14.01.2021 09:00:00 0,3 -2,9 32 18 - - NNE 1019,6 26
14.01.2021 08:00:00 - - - - - - - - -
14.01.2021 07:00:00 1,1 -2,3 36 19 - - NNE 1018,0 30
14.01.2021 06:00:00 0,9 -2,3 32 18 47 25 NNE 1017,1 35
14.01.2021 05:00:00 1,1 -2,1 40 21 50 27 NNE 1016,3 35
14.01.2021 04:00:00 1,6 -2,0 40 21 - - NNE 1015,3 30
14.01.2021 03:00:00 2,0 -1,9 40 21 58 31 NNE 1014,4 35
14.01.2021 02:00:00 1,6 -2,2 40 21 50 27 N 1013,2 30
14.01.2021 01:00:00 1,7 -2,5 36 19 - - N 1012,2 40
14.01.2021 00:00:00 1,8 -2,5 40 21 54 29 N 1011,4 40
13.01.2021 23:00:00 1,6 -2,7 40 21 50 27 N 1009,8 55
13.01.2021 22:00:00 1,0 -3,2 36 19 - - N 1008,6 65
13.01.2021 21:00:00 0,8 -3,6 36 19 58 31 N 1007,6 65
13.01.2021 20:00:00 1,3 -3,0 43 23 58 31 N 1006,4 45
13.01.2021 19:00:00 1,1 -2,7 36 19 - - NNW 1005,4 60
13.01.2021 18:00:00 1,0 -2,8 40 21 54 29 NNW 1004,9 60
13.01.2021 17:00:00 0,6 -3,2 40 21 61 33 N 1004,0 65
13.01.2021 16:00:00 1,0 -2,7 40 21 - - NNW 1003,0 55
13.01.2021 15:00:00 2,0 -1,4 43 23 65 35 N 1001,7 50
13.01.2021 14:00:00 2,9 0,0 50 27 79 43 NNW 1000,0 55
13.01.2021 13:00:00 2,9 1,3 40 21 - - W 999,3 30
13.01.2021 12:00:00 2,6 1,3 40 21 68 37 WNW 1000,5 6
13.01.2021 11:00:00 2,3 0,9 50 27 76 41 NW 1001,2 1,6
13.01.2021 10:00:00 3,9 0,8 47 25 - - W 1001,0 26
13.01.2021 09:00:00 3,0 1,1 47 25 58 31 W 1002,2 26
13.01.2021 08:00:00 2,5 0,4 36 19 50 27 W 1002,7 35
13.01.2021 07:00:00 2,0 -0,2 40 21 - - W 1003,3 2,9
13.01.2021 06:00:00 2,4 0,8 29 16 50 27 W 1003,5 30
13.01.2021 05:00:00 3,1 0,5 43 23 54 29 W 1003,5 35
13.01.2021 04:00:00 2,8 0,5 36 19 - - W 1003,8 30
13.01.2021 03:00:00 2,3 0,4 40 21 76 41 WNW 1004,1 45
13.01.2021 02:00:00 2,2 0,6 36 19 61 33 W 1004,3 35
13.01.2021 01:00:00 2,4 0,3 40 21 - - WNW 1004,9 8
13.01.2021 00:00:00 2,7 -0,1 47 25 68 37 NW 1004,9 10
12.01.2021 23:00:00 2,4 0,7 29 16 47 25 W 1004,2 35
12.01.2021 22:00:00 1,8 0,5 32 18 - - WNW 1004,3 26
12.01.2021 21:00:00 1,8 0,0 40 21 61 33 NW 1003,8 60
12.01.2021 20:00:00 2,6 0,0 40 21 47 25 WNW 1002,8 30
12.01.2021 19:00:00 2,3 -0,3 36 19 - - WNW 1002,6 40
12.01.2021 18:00:00 1,9 0,0 29 16 - - WNW 1002,2 45
12.01.2021 17:00:00 2,1 0,7 32 18 - - WNW 1002,0 12
12.01.2021 16:00:00 1,8 0,6 18 10 - - WNW 1001,2 55
12.01.2021 15:00:00 1,9 1,0 25 14 54 29 NW 1000,1 70
12.01.2021 14:00:00 3,4 1,5 18 10 - - WNW 999,3 50
12.01.2021 13:00:00 2,3 0,0 36 19 - - WNW 999,6 5
12.01.2021 12:00:00 3,6 -0,8 25 14 - - WSW 999,6 55
12.01.2021 11:00:00 2,9 0,0 14 8 - - WSW 1000,0 35
12.01.2021 10:00:00 1,0 0,7 18 10 - - W 1000,1 40
12.01.2021 09:00:00 -0,7 -1,4 14 8 - - W 999,8 11
12.01.2021 08:00:00 1,6 0,7 18 10 - - WNW 999,4 40
12.01.2021 07:00:00 2,0 1,2 18 10 - - WNW 999,1 40
12.01.2021 06:00:00 3,1 1,8 25 14 - - NW 998,8 45
12.01.2021 05:00:00 3,2 2,1 14 8 - - WNW 998,5 65
12.01.2021 04:00:00 3,5 2,4 22 12 - - WNW 998,4 65
12.01.2021 03:00:00 4,0 2,9 29 16 50 27 NW 997,8 40
12.01.2021 02:00:00 5,1 4,1 47 25 68 37 NW 996,3 17
12.01.2021 01:00:00 6,7 5,8 43 23 - - WSW 995,7 5
12.01.2021 00:00:00 6,3 5,3 47 25 79 43 WSW 996,6 5
11.01.2021 23:00:00 5,8 4,8 43 23 79 43 SW 997,4 2,9
11.01.2021 22:00:00 5,7 4,7 43 23 - - WSW 998,8 3,8
11.01.2021 21:00:00 5,4 4,4 40 21 68 37 SW 1000,0 2,1
11.01.2021 20:00:00 5,4 4,2 40 21 76 41 SW 1001,2 8
11.01.2021 19:00:00 5,5 4,2 43 23 - - WSW 1002,0 14
11.01.2021 18:00:00 5,3 4,4 40 21 76 41 WSW 1002,8 4,6
11.01.2021 17:00:00 5,4 4,3 40 21 68 37 WSW 1003,9 3,4
11.01.2021 16:00:00 5,2 4,1 36 19 - - SW 1004,7 6
11.01.2021 15:00:00 4,9 3,8 36 19 61 33 SW 1005,6 2,9
11.01.2021 14:00:00 5,3 3,9 36 19 65 35 SW 1006,6 10
11.01.2021 13:00:00 5,5 3,9 40 21 - - SW 1007,6 12
11.01.2021 12:00:00 5,7 4,0 36 19 65 35 SW 1008,8 5
11.01.2021 11:00:00 5,5 4,5 32 18 58 31 SW 1009,4 8
11.01.2021 10:00:00 5,5 4,4 36 19 - - WSW 1009,9 6
11.01.2021 09:00:00 5,4 4,3 32 18 54 29 SW 1010,1 4,8
11.01.2021 08:00:00 5,5 4,3 32 18 50 27 SW 1010,4 7
11.01.2021 07:00:00 5,3 4,3 32 18 - - SW 1010,9 5
11.01.2021 06:00:00 5,0 3,7 25 14 47 25 SW 1011,6 7
11.01.2021 05:00:00 4,2 3,5 22 12 - - SSW 1012,8 6
11.01.2021 04:00:00 3,7 2,5 18 10 - - SSW 1013,9 8
11.01.2021 03:00:00 3,5 1,7 18 10 - - SSW 1014,6 19
11.01.2021 02:00:00 3,2 1,6 22 12 - - SW 1015,0 35
11.01.2021 01:00:00 3,0 1,6 18 10 - - SW 1015,5 35
11.01.2021 00:00:00 3,0 1,8 18 10 - - WSW 1015,9 40
10.01.2021 23:00:00 2,8 2,2 14 8 - - WSW 1016,2 21
10.01.2021 22:00:00 3,2 2,8 11 6 - - W 1016,4 9
10.01.2021 21:00:00 3,6 3,2 14 8 - - W 1016,7 8
10.01.2021 20:00:00 3,7 3,3 14 8 - - W 1016,5 9
10.01.2021 19:00:00 3,7 3,3 14 8 - - WSW 1016,5 7
10.01.2021 18:00:00 3,8 3,2 25 14 - - W 1016,7 3,6
10.01.2021 17:00:00 3,4 2,7 29 16 50 27 WSW 1016,9 3,5
10.01.2021 16:00:00 2,7 1,9 29 16 - - SW 1016,6 2,9
10.01.2021 15:00:00 2,7 1,7 29 16 47 25 SW 1017,0 2,6
10.01.2021 14:00:00 2,6 1,5 25 14 - - SW 1017,6 2,3
10.01.2021 13:00:00 2,2 1,4 25 14 - - SSW 1018,0 5
10.01.2021 12:00:00 1,3 1,0 25 14 - - SSW 1018,7 4,3
10.01.2021 11:00:00 0,6 0,3 25 14 47 25 SSW 1019,2 2,2
10.01.2021 10:00:00 0,0 -0,3 29 16 - - SSW 1019,7 1,8
10.01.2021 09:00:00 -0,8 -1,2 25 14 47 25 SSW 1019,9 1,3
10.01.2021 08:00:00 -1,3 -2,0 18 10 - - SSW 1020,4 5
10.01.2021 07:00:00 -1,4 -2,0 18 10 - - SSW 1020,6 5
10.01.2021 06:00:00 -1,3 -2,0 22 12 - - SSW 1021,0 3,8
10.01.2021 05:00:00 -0,7 -1,5 18 10 - - SSW 1021,0 5

tt = temperature
td = dewpoint
ff = wind speed
fx = gusts
dd = wind direction
ppp = reduced air pressure
vv = visibility

Next stations